Showing default

CARTOSAT 2E, 42767

Orbit data source: Space-Track

CARTOSAT 2E, 42767 is a payload satellite owned by ISRO (IN) in SSO that was launched on Fri, 23 Jun 2017 UTC via a PSLV-XL launch vehicle from the Sirharikota (SRI). Payload-class satellites include a variety of spacecraft equipped with specific instruments for various scientific and technological missions. These include communications satellites like Starlink; space stations such as the ISS; scientific satellites like the Hubble; Earth observation satellites from companies like Planet Labs, Umbra, and HawkEye 360; GPS; miniature CubeSats for education and research; and military/defense satellites.

Loading next visibility...
Identifier
42767, 2017-036C
Orbit
SSO
Last TLE update
5 hours ago
Origin
Manufacturer
ISRO
Mission
Operational Civil Imaging
Bus & Motor
IRS-2, AOCS
Mass
712 kg wet, 639 kg dry
Launch date (UTC)
2017-06-23 (8 years ago)
Launch vehicle
PSLV-XL
Launch site
Sirharikota (SRI)
Object type
Payload
Rocket body
Debris
Shape & HBR
Hex Cyl + 2 Pan, 8 m
Radar Cross Section
9.780 m², Large (>1 m²)

Expand to show TLE details & history

TLE from 5 hours ago
0 CARTOSAT 2E
1 42767U 17036C   25182.18587967  .00004108  00000-0  19813-3 0  9990
2 42767  97.4769 241.6527 0004422  96.3375 263.8363 15.19250973444850
Epoch: 2025-07-01T04:27Z
TLE epoch observation values (Epoch: 2025-07-01T04:27:40.003Z)
Latitude
-0.00005°
Longitude
-104.74893°
Altitude
511.519 km
Speed
7.608 km/s
True Right ascension
16h 06m 36s
True Declination
0° 00' 00"
Sunlit
Object was in full shadow at epoch
Visualization orbit readout
Latitude
40.42626°
Longitude
-110.92959°
Altitude
512.216 km
Speed
7.613 km/s
Apparent Right ascension
12h 31m 03s
Apparent Declination
3° 17' 47"
Sunlit
Object is in daylight
Visualization observer readout
Local Sidereal Time
21:01:10
Azimuth
298.748° NW
Elevation
-25.438°
Doppler factor
1
Orbital elements
Apogee altitude
508.117 km
Perigee altitude
502.029 km
Semi-major axis
6,883.21 km
Eccentricity
0.00044
Inclination
97.4769°
RAAN
241.6527°
Arg. of periapsis
96.3375°
True anomaly
Unknown
Mean anomaly
263.8363°
Eccentric anomaly
Unknown
Mean motion
3.80064 °/min
Orbital period
94.72 mins
BSTAR
0.00019813
Loading maneuver chart data...
Loading SW <> Apogee altitude chart data...
Loading historical data...
Loading historical data...
Loading historical data...
Loading historical data...
Loading historical data...
Loading historical data...
Loading historical data...

CARTOSAT 2E Visibility forecast

Observer location: undefined°, undefined°

Span
Click to sort rows by Start time (UTC) header in descending order
Start Az.
Max El. time (UTC)
Max El. Az.
Max El.
End time (UTC)
End Az.
5 mins2025-07-01 16:05:54.057Z43.955° NE2025-07-01 16:08:54.057Z101.04° ESE20.689°2025-07-01 16:10:54.057Z140.307° SSE
4 mins2025-07-01 17:40:54.057Z324.375° NNW2025-07-01 17:42:54.057Z279.937° WNW19.735°2025-07-01 17:44:54.057Z244.154° WSW
5 mins2025-07-02 04:18:54.057Z193.884° SSW2025-07-02 04:20:54.057Z270.605° WNW38.223°2025-07-02 04:23:54.057Z336.055° NNW
|